[[{"header":{"parameterUnit":"m.s-1","parameterCategory":1,"la1":30.2991,"la2":30.254,"lo1":-89.0895,"lo2":-89.0444,"dy":0.0017,"dx":0.0017,"nx":28,"ny":28,"refTime":"2024-12-05T03:00:00:Z","depth":0,"parameterNumber":2,"parameterNumberName":"U-component_of_WINDS"},"data":[0,0,0,0,0,0,0,0,0,0,0,0,0,0,0,0,0,0,0,0,0,0,0,0,0,0,0,0,0,0,0,0,0,0,0,0,0,0,0,0,0,0,0,0,0,0,0,0,0,0,0,0,0,0,0,0,0,0,-2.332,-2.332,0,-2.3353,-2.3354,-2.3354,-2.3281,-2.3279,-2.3276,-2.3274,-2.3309,-2.3312,-2.3315,0,0,0,0,0,0,0,0,0,0,0,0,0,-2.3192,-2.3195,-2.332,-2.332,-2.332,-2.3353,-2.3354,-2.3354,-2.3281,-2.3279,-2.3276,-2.3273,-2.3308,-2.3312,-2.3316,0,0,0,0,0,0,0,0,0,0,0,0,0,-2.3239,-2.3196,-2.332,-2.3288,-2.3286,-2.3353,-2.3354,-2.3354,-2.3282,-2.3278,-2.3275,-2.3272,-2.3307,-2.3312,-2.3316,-2.3416,0,0,-2.333,-2.3333,0,0,0,0,0,0,0,0,-2.3236,-2.3244,-2.3292,-2.329,-2.3288,-2.3309,-2.3321,-2.3375,-2.3283,-2.3283,-2.3274,-2.327,-2.3312,-2.3316,-2.333,-2.3417,-2.3419,-2.3331,-2.3334,-2.3336,-2.3337,0,0,0,0,0,0,0,-2.3233,-2.3242,-2.3333,-2.3293,-2.329,-2.3272,-2.3275,-2.3331,-2.3317,-2.3283,-2.3278,-2.3283,-2.331,-2.3326,-2.3331,-2.3419,-2.3331,-2.3335,-2.3338,-2.334,-2.3589,-2.3593,0,0,0,0,0,0,-2.3234,-2.324,-2.3332,-2.3334,-2.3253,-2.3277,-2.328,-2.3306,-2.3316,-2.3315,-2.3286,-2.3279,-2.332,-2.3325,-2.3332,-2.3449,-2.3336,-2.334,-2.3343,-2.3585,-2.359,-2.3594,0,0,0,0,0,0,-2.3231,-2.3243,-2.333,-2.3285,-2.3295,-2.3283,-2.3313,-2.3308,-2.3324,-2.3318,-2.3316,-2.3305,-2.3317,-2.3325,-2.3395,-2.3449,-2.3342,-2.3347,-2.3581,-2.3587,-2.3592,-2.3684,0,0,0,0,0,0,-2.3228,-2.3242,-2.328,-2.3287,-2.3298,-2.3394,-2.3316,-2.3312,-2.3332,-2.3324,-2.3335,-2.3334,-2.3315,-2.3389,-2.34,-2.3453,-2.335,-2.3576,-2.3583,-2.359,-2.3676,-2.3692,-2.3706,0,0,0,0,0,-2.3224,-2.3305,-2.3283,-2.3294,-2.3345,-2.3397,-2.3404,-2.338,-2.3337,-2.3375,-2.3371,-2.3333,-2.3441,-2.3396,-2.3408,-2.3464,-2.3572,-2.3581,-2.359,-2.367,-2.3689,-2.3706,0,0,0,0,0,0,-2.3306,-2.3306,-2.3281,-2.3367,-2.3383,-2.3385,-2.3432,-2.3402,-2.3431,-2.3422,-2.3391,-2.3394,-2.3471,-2.3474,-2.3425,-2.3561,-2.3499,-2.3511,-2.3556,-2.3574,-2.3589,-2.3587,-2.3354,0,0,0,0,0,-2.3334,-2.3377,-2.3374,-2.345,-2.3459,-2.3445,-2.3466,-2.3447,-2.3462,-2.3469,-2.347,-2.3486,-2.3523,-2.3549,-2.3583,-2.3676,-2.3677,-2.372,-2.3735,-2.3747,-2.3758,-2.3806,-2.3825,-2.3622,-2.3622,-2.3622,0,0,-2.3393,-2.3398,-2.3427,-2.3467,-2.3477,-2.3521,-2.3451,-2.3501,-2.3534,-2.3476,-2.3543,-2.3544,-2.356,-2.3642,-2.3678,-2.3647,-2.3814,-2.3758,-2.3768,-2.3772,-2.3817,-2.3837,-2.3854,-2.3628,-2.3627,-2.3626,0,0,-2.3523,-2.3531,-2.3595,-2.3606,-2.3622,-2.3612,-2.3627,-2.3634,-2.3632,-2.3698,-2.3656,-2.3694,-2.3759,-2.3772,-2.3787,-2.3921,-2.3887,-2.3932,-2.4011,-2.4059,-2.4075,-2.4089,-2.4137,-2.4154,-2.3943,-2.3943,-2.3943,0,-2.3595,-2.366,-2.3632,-2.3685,-2.3704,-2.3653,-2.3718,-2.373,-2.3756,-2.377,-2.3735,-2.3815,-2.3822,-2.3906,-2.3938,-2.3952,-2.3969,-2.3932,-2.4075,-2.4088,-2.4101,-2.4146,-2.4165,-2.3948,-2.3948,-2.3947,-2.3947,0,-2.3747,-2.3793,-2.3843,-2.3869,-2.3893,-2.3952,-2.3933,-2.396,-2.3938,-2.3931,-2.3998,-2.4005,-2.4039,-2.4057,-2.4036,-2.4138,-2.4119,-2.408,-2.4018,-2.4127,-2.4169,-2.4186,-2.3956,-2.3954,-2.3953,-2.3951,0,0,-2.3932,-2.3941,-2.396,-2.3971,-2.3983,-2.4018,-2.4074,-2.4107,-2.4132,-2.4151,-2.4197,-2.4252,-2.4216,-2.4233,-2.4213,-2.4255,-2.436,-2.421,-2.421,-2.4239,-2.4473,-2.4503,-2.4523,-2.4337,-2.434,-2.4343,-2.4471,0,-2.4061,-2.4157,-2.4133,-2.4229,-2.4271,-2.4222,-2.427,-2.4283,-2.4278,-2.4312,-2.4306,-2.4346,-2.4294,-2.4304,-2.4344,-2.4339,-2.4407,-2.4329,-2.438,-2.4382,-2.4379,-2.4545,-2.4577,-2.4699,-2.4488,-2.449,-2.4492,0,-2.4225,-2.425,-2.435,-2.4355,-2.4372,-2.4416,-2.4444,-2.4477,-2.4491,-2.4483,-2.4502,-2.4473,-2.4528,-2.4464,-2.4539,-2.4487,-2.4506,-2.4506,-2.451,-2.4515,-2.4445,-2.4555,-2.4737,-2.4755,-2.4518,-2.4516,-2.4514,0,-2.4351,-2.441,-2.4477,-2.4487,-2.4495,-2.4527,-2.4531,-2.4541,-2.4562,-2.4586,-2.4599,-2.463,-2.4647,-2.467,-2.465,-2.4606,-2.4728,-2.4663,-2.4724,-2.4725,-2.4753,-2.4752,-2.4941,-2.4764,-2.4764,-2.4763,-2.4763,0,-2.4498,-2.4562,-2.4533,-2.4575,-2.4643,-2.4614,-2.4683,-2.4682,-2.4691,-2.4731,-2.469,-2.4728,-2.4698,-2.4734,-2.4718,-2.4783,-2.4791,-2.4786,-2.4782,-2.4791,-2.4791,-2.4804,-2.4795,-2.4768,-2.4767,-2.4766,-2.4765,0,-2.4651,-2.4635,-2.4704,-2.4705,-2.4707,-2.4758,-2.4758,-2.4796,-2.4787,-2.4838,-2.4848,-2.4834,-2.4874,-2.4855,-2.4897,-2.4886,-2.4969,-2.4953,-2.4965,-2.4961,-2.5023,-2.5018,-2.5228,-2.5254,-2.506,-2.5061,-2.5063,0,-2.4747,-2.4794,-2.48,-2.4823,-2.4831,-2.487,-2.4891,-2.4863,-2.4887,-2.4904,-2.494,-2.4976,-2.5004,-2.507,-2.5063,-2.5094,-2.5079,-2.515,-2.5083,-2.5091,-2.5081,-2.5078,-2.5083,-2.5164,-2.5166,-2.5168,-2.517,0,-2.4919,-2.4908,-2.494,-2.4969,-2.4995,-2.5016,-2.5034,-2.5056,-2.5029,-2.5057,-2.5097,-2.5119,-2.516,-2.5197,-2.5224,-2.5228,-2.5195,-2.519,-2.5206,-2.5217,-2.5222,-2.522,-2.5002,-2.5186,-2.5184,-2.5183,-2.5182,-2.5182,-2.5047,-2.5086,-2.5096,-2.5132,-2.5143,-2.516,-2.5196,-2.519,-2.5223,-2.5255,-2.5237,-2.5283,-2.5294,-2.5327,-2.5335,-2.5371,-2.5343,-2.5366,-2.5372,-2.5378,-2.5387,-2.5215,-2.5376,-2.5376,-2.5375,-2.5375,-2.5374,0,-2.5217,-2.522,-2.5254,-2.528,-2.5309,-2.5274,-2.5291,-2.5318,-2.5359,-2.5372,-2.5399,-2.5445,-2.5479,-2.5475,-2.5506,-2.5536,-2.5521,-2.5545,-2.5543,-2.5544,-2.541,-2.5394,-2.5556,-2.5556,-2.5556,-2.5556,-2.5556,-2.5556,-2.5309,-2.5374,-2.5364,-2.5433,-2.5436,-2.5481,-2.5494,-2.551,-2.552,-2.5572,-2.5601,-2.5597,-2.5602,-2.5634,-2.5664,-2.5661,-2.5675,-2.5705,-2.5697,-2.5572,-2.5554,-2.5537,-2.5521,-2.5708,-2.5708,-2.5828,-2.5829,-2.583]},{"header":{"parameterUnit":"m.s-1","parameterCategory":1,"la1":30.2991,"la2":30.254,"lo1":-89.0895,"lo2":-89.0444,"dy":0.0017,"dx":0.0017,"nx":28,"ny":28,"refTime":"2024-12-05T03:00:00:Z","depth":0,"parameterNumber":3,"parameterNumberName":"V-component_of_WINDS"},"data":[0,0,0,0,0,0,0,0,0,0,0,0,0,0,0,0,0,0,0,0,0,0,0,0,0,0,0,0,0,0,0,0,0,0,0,0,0,0,0,0,0,0,0,0,0,0,0,0,0,0,0,0,0,0,0,0,0,0,-7.8523,-7.8524,0,-7.8647,-7.8648,-7.865,-7.8557,-7.8553,-7.8549,-7.8545,-7.8665,-7.8672,-7.8679,0,0,0,0,0,0,0,0,0,0,0,0,0,-7.8199,-7.8206,-7.8523,-7.8525,-7.8526,-7.8647,-7.8648,-7.865,-7.8558,-7.8553,-7.8548,-7.8543,-7.8663,-7.8671,-7.8679,0,0,0,0,0,0,0,0,0,0,0,0,0,-7.8333,-7.8208,-7.8523,-7.8495,-7.8493,-7.8646,-7.8648,-7.865,-7.8559,-7.8552,-7.8546,-7.8541,-7.866,-7.867,-7.8681,-7.8866,0,0,-7.8713,-7.8717,0,0,0,0,0,0,0,0,-7.8326,-7.8345,-7.8497,-7.8497,-7.8496,-7.858,-7.8578,-7.8722,-7.856,-7.8534,-7.8545,-7.8538,-7.8641,-7.8653,-7.8689,-7.8872,-7.8877,-7.8713,-7.872,-7.8724,-7.8727,0,0,0,0,0,0,0,-7.8317,-7.8339,-7.8572,-7.8499,-7.8499,-7.8474,-7.8486,-7.8605,-7.862,-7.8535,-7.8529,-7.8545,-7.864,-7.8679,-7.8691,-7.8878,-7.8713,-7.8722,-7.8729,-7.8733,-7.9217,-7.9224,0,0,0,0,0,0,-7.8311,-7.8332,-7.8568,-7.8575,-7.8394,-7.8484,-7.8498,-7.8559,-7.8618,-7.8621,-7.855,-7.8541,-7.8665,-7.8679,-7.8695,-7.8915,-7.8724,-7.8734,-7.874,-7.9211,-7.9219,-7.9226,0,0,0,0,0,0,-7.8304,-7.8333,-7.8563,-7.8452,-7.848,-7.8496,-7.8566,-7.8565,-7.8604,-7.863,-7.8631,-7.8589,-7.866,-7.8681,-7.8824,-7.8918,-7.8739,-7.8748,-7.9203,-7.9213,-7.9222,-7.9358,0,0,0,0,0,0,-7.8295,-7.8331,-7.8403,-7.8455,-7.8486,-7.8692,-7.8571,-7.8572,-7.8623,-7.8612,-7.8666,-7.8669,-7.8657,-7.8809,-7.8835,-7.8929,-7.8756,-7.9195,-7.9208,-7.9219,-7.9345,-7.9371,-7.9394,0,0,0,0,0,-7.8284,-7.8435,-7.8408,-7.8436,-7.8577,-7.8698,-7.8716,-7.8701,-7.8632,-7.8703,-7.8719,-7.8667,-7.8904,-7.8825,-7.8853,-7.8952,-7.9189,-7.9204,-7.9218,-7.9334,-7.9366,-7.9393,0,0,0,0,0,0,-7.8392,-7.8441,-7.8411,-7.8584,-7.8638,-7.8682,-7.8772,-7.8735,-7.8808,-7.8794,-7.8771,-7.8784,-7.8935,-7.8957,-7.8868,-7.9134,-7.9035,-7.9056,-7.9113,-7.9144,-7.9168,-7.9159,-7.8765,0,0,0,0,0,-7.8437,-7.8533,-7.857,-7.8718,-7.8747,-7.8756,-7.8808,-7.8792,-7.8846,-7.8867,-7.8894,-7.8946,-7.9032,-7.9089,-7.917,-7.9348,-7.9357,-7.943,-7.9454,-7.9474,-7.9492,-7.9587,-7.9619,-7.9275,-7.9275,-7.9274,0,0,-7.8528,-7.8567,-7.8629,-7.8741,-7.8781,-7.8879,-7.8775,-7.8883,-7.8955,-7.8883,-7.9021,-7.9042,-7.9099,-7.9261,-7.9333,-7.9284,-7.9589,-7.9493,-7.9508,-7.9516,-7.9606,-7.9638,-7.9667,-7.9285,-7.9283,-7.9281,0,0,-7.8746,-7.8786,-7.8914,-7.8956,-7.9019,-7.9023,-7.9054,-7.9104,-7.9116,-7.9255,-7.9202,-7.9286,-7.9435,-7.9478,-7.9519,-7.9753,-7.9707,-7.9779,-7.9906,-7.9999,-8.0026,-8.005,-8.0132,-8.0162,-7.9798,-7.9798,-7.9798,0,-7.8851,-7.9,-7.8983,-7.9097,-7.9146,-7.9088,-7.9216,-7.9257,-7.9342,-7.9377,-7.9321,-7.9507,-7.9541,-7.9712,-7.9769,-7.9804,-7.9837,-7.9773,-8.0024,-8.0047,-8.0069,-8.0148,-8.0179,-7.9806,-7.9805,-7.9805,-7.9804,0,-7.9126,-7.9229,-7.9325,-7.9411,-7.9472,-7.9592,-7.9591,-7.9654,-7.9633,-7.9643,-7.9784,-7.9823,-7.991,-7.9949,-7.9929,-8.0117,-8.0084,-8.0027,-7.9927,-8.0111,-8.0184,-8.0214,-7.9818,-7.9815,-7.9813,-7.9811,0,0,-7.9415,-7.9491,-7.9526,-7.9564,-7.9629,-7.9707,-7.9823,-7.9911,-7.9965,-8.0025,-8.0121,-8.0249,-8.0196,-8.0243,-8.0226,-8.0308,-8.049,-8.024,-8.0241,-8.0284,-8.0698,-8.074,-8.0776,-8.046,-8.0466,-8.047,-8.0693,0,-7.9635,-7.9841,-7.9829,-8.0021,-8.0116,-8.0061,-8.0162,-8.0211,-8.0223,-8.0303,-8.0315,-8.0406,-8.033,-8.0358,-8.0436,-8.0451,-8.0572,-8.0435,-8.0547,-8.0551,-8.0534,-8.0814,-8.086,-8.1068,-8.0721,-8.0726,-8.073,0,-7.9919,-7.9992,-8.0194,-8.0245,-8.0284,-8.0375,-8.0454,-8.0532,-8.0586,-8.0589,-8.0642,-8.0612,-8.0727,-8.0625,-8.0782,-8.0689,-8.0734,-8.0748,-8.0756,-8.0765,-8.0651,-8.083,-8.1134,-8.1165,-8.0775,-8.0771,-8.0768,0,-8.0109,-8.0257,-8.0397,-8.0431,-8.0494,-8.0559,-8.0588,-8.0636,-8.0689,-8.0757,-8.0791,-8.0871,-8.0915,-8.0976,-8.0968,-8.0895,-8.1128,-8.1025,-8.1131,-8.1132,-8.1183,-8.118,-8.1497,-8.1213,-8.1212,-8.1212,-8.1211,0,-8.0356,-8.0482,-8.0483,-8.0569,-8.0708,-8.0692,-8.0829,-8.085,-8.0893,-8.0981,-8.0937,-8.1019,-8.1004,-8.1085,-8.1079,-8.121,-8.123,-8.1234,-8.1231,-8.1238,-8.1237,-8.1266,-8.1251,-8.122,-8.1218,-8.1217,-8.1215,0,-8.0591,-8.0598,-8.0747,-8.0794,-8.0809,-8.0909,-8.0948,-8.1028,-8.1036,-8.1148,-8.1172,-8.1185,-8.1279,-8.1277,-8.1383,-8.1379,-8.1539,-8.1519,-8.1522,-8.1517,-8.1624,-8.1614,-8.1971,-8.2017,-8.1703,-8.1706,-8.1709,0,-8.0749,-8.0844,-8.0903,-8.0959,-8.0993,-8.1084,-8.1139,-8.1127,-8.1185,-8.1254,-8.1325,-8.1416,-8.1487,-8.1639,-8.1656,-8.1737,-8.1718,-8.1838,-8.1729,-8.1734,-8.1719,-8.1713,-8.1722,-8.1859,-8.1862,-8.1865,-8.1867,0,-8.1026,-8.1025,-8.1107,-8.119,-8.1257,-8.1321,-8.138,-8.1428,-8.1422,-8.1489,-8.1586,-8.1642,-8.1751,-8.1841,-8.1918,-8.1944,-8.1905,-8.1901,-8.193,-8.1938,-8.1936,-8.1938,-8.1579,-8.1893,-8.189,-8.1889,-8.1887,-8.1886,-8.1227,-8.1309,-8.1364,-8.1456,-8.1499,-8.1556,-8.1633,-8.1652,-8.1734,-8.1823,-8.181,-8.1918,-8.1968,-8.2068,-8.2102,-8.2184,-8.2142,-8.2184,-8.2194,-8.2204,-8.2216,-8.1923,-8.2198,-8.2197,-8.2197,-8.2196,-8.2196,0,-8.1502,-8.1534,-8.162,-8.1705,-8.1777,-8.1736,-8.1799,-8.1861,-8.1957,-8.2008,-8.208,-8.2191,-8.2277,-8.2302,-8.2385,-8.2446,-8.243,-8.2468,-8.2463,-8.2469,-8.225,-8.2216,-8.248,-8.248,-8.2479,-8.2479,-8.2479,-8.2479,-8.1654,-8.1791,-8.1796,-8.1953,-8.1984,-8.2091,-8.213,-8.2181,-8.2222,-8.2348,-8.2421,-8.2437,-8.2477,-8.2562,-8.2639,-8.2644,-8.2676,-8.2722,-8.2719,-8.2513,-8.2485,-8.2458,-8.2426,-8.2729,-8.2729,-8.2931,-8.2933,-8.2935]}]]